IRIDIUM 7

Last updated on Wed Nov 29 2017 00:19:02 GMT+0000 (Coordinated Universal Time)

1 24793U 97020B 17332.25494132 .00000081 00000-0 21786-4 0 9996 2 24793 86.3988 250.3662 0002046 80.8295 279.3132 14.34236421 76715
UTC large
Height (km)
Speed (km/s)
/
Latitude / Longitude
Inclination (degrees)
Orbital Period (minutes)
Azimuth
Elevation
Range (km)
Doppler Factor

Next 0 passes for location: London (51.5072 / 0.1276)

Sorry there are no passes over London.